Weather History for Meeker, CO

Change the Weather History Date:

Saturday, July 6, 2013

  Actual Average Record
Temperature  
Mean Temperature 69 °F 66 °F  
Max Temperature 82 °F 85 °F 95 °F (2001)
Min Temperature 55 °F 47 °F 39 °F (2000)
Degree Days  
Heating Degree Days 0 1  
Month to date heating degree days 0 8  
Since 1 June heating degree days 76 152  
Since 1 July heating degree days 0 8  
Cooling Degree Days 4 2  
Month to date cooling degree days 28 10  
Year to date cooling degree days 65 28  
Since 1 June cooling degree days 65 27  
Growing Degree Days 18 (Base 50)    
Moisture  
Dew Point 49 °F    
Average Humidity 53    
Maximum Humidity 80    
Minimum Humidity 26    
Precipitation  
Precipitation T in 0.03 in 0.09 in (2006)
Month to date precipitation 0.46 0.20  
Year to date precipitation 6.90 7.59  
Sea Level Pressure  
Sea Level Pressure 29.90 in    
Wind  
Wind Speed 7 mph (SE)    
Max Wind Speed 30 mph    
Max Gust Speed 37 mph    
Visibility 9 miles    
Events Rain , Thunderstorm    
T = Trace of Precipitation, MM = Missing Value Source: NWS Daily Summary

Daily Weather History Graph

Daily Weather History Graph

Search for Another Location

Airport:

Trip Planner

Search our weather history database for the weather conditions in past years. The results will help you decide how hot, cold, wet, or windy it might be!

Date:

Astronomy

Jul. 06, 2013 Rise Set
Actual Time 5:49 AM MDT 8:43 PM MDT
Civil Twilight 5:16 AM MDT 9:15 PM MDT
Nautical Twilight 4:35 AM MDT 9:56 PM MDT
Astronomical Twilight 3:48 AM MDT 10:43 PM MDT
Moon 4:37 AM MDT (7/6) 7:27 PM MDT (7/6)
Length of Visible Light 15h 59m
Length of Day
14h 54m
Waning Crescent, 2% of the Moon is Illuminated
Jul 6
Waning Crescent
Jul 8
New
Jul 15
First Quarter
Jul 22
Full
Jul 29
Last Quarter

Hourly Weather History & Observations

Time (MDT) Temp. Dew Point Humidity Pressure Visibility Wind Dir Wind Speed Gust Speed Precip Events Conditions
12:00 AM 64.4 °F 51.8 °F 64% 30.07 in 3.0 mi West 31.1 mph 38.0 mph 0.10 in Rain , Thunderstorm Light Thunderstorms and Rain
12:02 AM 62.6 °F 50.0 °F 63% 30.06 in 1.8 mi WNW 23.0 mph 38.0 mph 0.20 in Rain , Thunderstorm Heavy Thunderstorms and Rain
12:13 AM 64.4 °F 46.4 °F 52% 30.04 in 2.0 mi NNE 29.9 mph 44.9 mph 0.36 in Rain , Thunderstorm Heavy Thunderstorms and Rain
12:21 AM 64.4 °F 48.2 °F 56% 30.08 in 10.0 mi SW 19.6 mph 40.3 mph 0.36 in Rain , Thunderstorm Light Thunderstorms and Rain
12:29 AM 68.0 °F 46.4 °F 46% 30.09 in 10.0 mi SSE 8.1 mph 25.3 mph 0.36 in Thunderstorm Thunderstorm
12:46 AM 64.4 °F 50.0 °F 59% 30.09 in 10.0 mi Calm Calm - 0.36 in   Mostly Cloudy
12:53 AM 64.0 °F 50.0 °F 60% 29.81 in 10.0 mi Calm Calm - 0.36 in   Overcast
1:53 AM 61.0 °F 54.0 °F 78% 29.85 in 10.0 mi ENE 5.8 mph - N/A   Clear
2:53 AM 59.0 °F 51.1 °F 75% 29.83 in 10.0 mi East 5.8 mph - N/A   Clear
3:53 AM 57.9 °F 52.0 °F 81% 29.82 in 10.0 mi NNE 10.4 mph - N/A   Clear
4:53 AM 57.9 °F 51.1 °F 78% 29.82 in 10.0 mi NE 4.6 mph - N/A   Partly Cloudy
5:53 AM 55.9 °F 48.9 °F 77% 29.84 in 10.0 mi ENE 3.5 mph - N/A   Clear
6:53 AM 57.0 °F 50.0 °F 77% 29.85 in 10.0 mi East 4.6 mph - N/A   Clear
7:53 AM 57.9 °F 50.0 °F 75% 29.87 in 10.0 mi ESE 5.8 mph - N/A   Scattered Clouds
8:53 AM 64.9 °F 51.1 °F 61% 29.86 in 10.0 mi Calm Calm - N/A   Clear
9:53 AM 64.9 °F 53.1 °F 65% 29.90 in 10.0 mi Calm Calm - N/A   Overcast
10:53 AM 71.1 °F 51.1 °F 49% 29.88 in 10.0 mi SSE 5.8 mph - N/A   Mostly Cloudy
11:53 AM 73.9 °F 48.9 °F 41% 29.86 in 10.0 mi SSE 5.8 mph - N/A   Clear
12:53 PM 77.0 °F 46.9 °F 34% 29.85 in 10.0 mi SSE 5.8 mph - N/A   Clear
1:53 PM 80.1 °F 46.0 °F 30% 29.83 in 10.0 mi Variable 3.5 mph - N/A   Clear
2:53 PM 80.1 °F 46.9 °F 31% 29.82 in 10.0 mi SSE 5.8 mph - N/A   Clear
3:53 PM 81.0 °F 51.1 °F 35% 29.80 in 10.0 mi SSE 11.5 mph - N/A   Clear
4:53 PM 81.0 °F 48.0 °F 31% 29.78 in 10.0 mi ESE 10.4 mph - N/A   Clear
5:53 PM 82.0 °F 45.0 °F 27% 29.77 in 10.0 mi SSE 3.5 mph - N/A   Clear
6:53 PM 79.0 °F 48.0 °F 34% 29.77 in 10.0 mi Calm Calm - N/A   Clear
7:15 PM 77.0 °F 50.0 °F 39% 30.04 in 10.0 mi SSW 4.6 mph - N/A Thunderstorm Scattered Clouds
7:53 PM 73.0 °F 44.1 °F 35% 29.83 in 7.0 mi WSW 28.8 mph 33.4 mph 0.00 in Rain Light Rain
8:04 PM 73.4 °F 46.4 °F 38% 30.08 in 9.0 mi SW 19.6 mph 36.8 mph 0.00 in Rain , Thunderstorm Light Rain
8:21 PM 71.6 °F 44.6 °F 38% 30.09 in 10.0 mi SSW 17.3 mph 26.5 mph 0.00 in Rain Light Rain
8:53 PM 68.0 °F 48.0 °F 49% 29.88 in 10.0 mi SW 17.3 mph 25.3 mph 0.00 in   Mostly Cloudy
9:53 PM 66.0 °F 48.0 °F 52% 29.89 in 10.0 mi NNW 4.6 mph - 0.00 in   Scattered Clouds
10:53 PM 64.0 °F 46.9 °F 54% 29.89 in 10.0 mi ESE 4.6 mph - N/A   Partly Cloudy
11:53 PM 63.0 °F 48.0 °F 58% 29.89 in 10.0 mi Calm Calm - N/A   Clear